Location: Caltech
(34.1382°N, 118.1253°W)
Time: 16:01:16
(UTC-08:00)

KITSAT 1 - Visible Passes

Search period start: 08 December 2016 00:00
Search period end: 18 December 2016 00:00
Orbit: 1313 x 1317 km, 66.1° (Epoch: 07 December)

Date Brightness Start Highest point End Pass type
(mag) Time Alt. Az. Time Alt. Az. Time Alt. Az.
08 Dec 11.2 04:51:04 10° NNW 04:58:41 43° NE 05:06:14 10° SE visible
08 Dec 11.0 19:14:51 10° S 19:19:35 35° SSE 19:19:35 35° SSE visible
08 Dec 12.5 21:10:45 10° WSW 21:11:38 13° WSW 21:11:38 13° WSW visible
09 Dec 12.4 03:14:27 11° NNE 03:17:48 14° NE 03:21:35 10° ENE visible
09 Dec 10.6 05:06:54 10° NNW 05:14:56 63° ENE 05:22:53 10° SE visible
09 Dec 10.6 19:30:22 10° SSW 19:36:14 52° S 19:36:14 52° S visible
09 Dec 12.7 21:28:09 10° W 21:28:17 10° W 21:28:17 10° W visible
10 Dec 12.1 03:30:36 14° N 03:34:36 20° NE 03:40:11 10° E visible
10 Dec 10.2 05:22:54 10° NNW 05:31:02 90° W 05:39:07 10° SSE visible
10 Dec 11.4 17:54:53 10° SE 17:59:58 18° ESE 18:00:50 18° E visible
10 Dec 10.5 19:46:21 10° SSW 19:52:53 61° SW 19:52:53 61° SW visible
11 Dec 11.7 03:46:49 18° N 03:51:11 29° NE 03:57:56 10° ESE visible
11 Dec 10.3 05:39:05 10° NW 05:47:01 61° WSW 05:54:54 10° S visible
11 Dec 10.9 18:08:56 10° SSE 18:15:39 30° ESE 18:17:29 27° E visible
11 Dec 10.8 20:02:45 10° SW 20:09:31 50° W 20:09:31 50° W visible
12 Dec 11.2 04:03:07 23° N 04:07:37 41° NE 04:15:07 10° ESE visible
12 Dec 10.7 05:55:32 10° NW 06:02:52 40° WSW 06:10:12 10° S visible
12 Dec 10.4 18:23:51 10° S 18:31:27 46° ESE 18:34:05 36° ENE visible
12 Dec 11.4 20:19:37 10° WSW 20:26:08 36° WNW 20:26:08 36° WNW visible
13 Dec 12.5 02:27:28 13° NE 02:27:28 13° NE 02:30:17 10° ENE visible
13 Dec 10.6 04:19:30 29° N 04:23:52 61° ENE 04:31:49 10° SE visible
13 Dec 11.2 06:12:24 10° NW 06:18:38 25° WSW 06:24:52 10° SSW visible
13 Dec 10.1 18:39:20 10° SSW 18:47:21 70° ESE 18:50:38 39° NE visible
13 Dec 11.8 20:36:59 10° W 20:42:41 25° NW 20:42:41 25° NW visible
14 Dec 12.1 02:43:55 19° NE 02:43:55 19° NE 02:48:58 10° E visible
14 Dec 10.1 04:35:57 34° NNW 04:39:59 88° ENE 04:48:04 10° SSE visible
14 Dec 11.5 17:04:03 10° SE 17:08:57 18° ESE 17:13:51 10° ENE visible
14 Dec 10.2 18:55:17 10° SSW 19:03:22 80° WNW 19:07:08 36° NNE visible
14 Dec 12.2 20:54:58 10° W 20:59:10 17° NW 20:59:10 17° NW visible
15 Dec 11.7 03:00:26 28° NE 03:00:26 28° NE 03:06:46 10° ESE visible
15 Dec 10.2 04:52:29 36° NW 04:55:58 63° WSW 05:03:53 10° S visible
15 Dec 11.1 17:18:01 10° SSE 17:24:38 29° ESE 17:31:14 10° NE visible
15 Dec 10.7 19:11:40 10° SW 19:19:32 55° WNW 19:23:33 30° N visible
15 Dec 12.6 21:14:04 10° WNW 21:15:34 12° NW 21:15:34 12° NW visible
16 Dec 11.2 03:17:01 40° ENE 03:17:01 40° ENE 03:23:59 10° ESE visible
16 Dec 10.6 05:09:03 32° WNW 05:11:51 41° WSW 05:19:13 10° S visible
16 Dec 10.6 17:32:52 10° S 17:40:25 45° ESE 17:47:52 10° NE visible
16 Dec 11.3 19:28:29 10° WSW 19:35:50 37° NW 19:39:53 24° N visible
17 Dec 10.6 03:33:38 56° E 03:33:38 56° E 03:40:44 10° SE visible
17 Dec 11.1 05:25:41 24° W 05:27:36 26° WSW 05:33:57 10° SSW visible
17 Dec 10.2 17:48:19 10° SSW 17:56:18 68° ESE 18:04:08 11° NNE visible
17 Dec 11.8 19:45:48 10° WSW 19:52:18 26° NW 19:56:09 18° N visible
